Regional Weather Roundup
Issued by NWS State College, PA

Home | Current Version | Previous Version | Text Only | Print | Product List | Glossary Off
Versions: 1 2 3 4 5 6 7 8 9 10 11 12 13 14 15 16 17 18 19 20 21 22 23 24 25 26 27 28 29 30 31 32 33 34 35 36 37 38 39 40 41 42 43 44 45 46 47 48 49 50

163
ASUS41 KCTP 232003
RWRCTP

REGIONAL WEATHER ROUNDUP
NATIONAL WEATHER SERVICE STATE COLLEGE PA
300 PM EST THU FEB 23 2017

Note: "fair" indicates few or no clouds below 12,000 feet with no
significant weather and/or obstructions to visibility.

* = STATION THAT DOES NOT REPORT PRECIPITATION /E.G. RAIN...SNOW...ETC/
    THUNDER OR FOG.

PAZ002>004-007>009-013>016-020>023-029>032-232100-
WESTERN PENNSYLVANIA

CITY           SKY/WX    TMP DP  RH WIND       PRES   REMARKS
ERIE           MOSUNNY   57  48  72 W15G22    29.76R
MEADVILLE      CLOUDY    63  52  67 SW13G20   29.77R
FRANKLIN*      CLOUDY    63  54  72 W14G20    29.79S
NEW CASTLE     MOCLDY    66  54  65 SW8       29.78S
BEAVER COUNTY  CLOUDY    64  54  68 W6        29.79R
BUTLER*        PTSUNNY   64  54  68 SW6       29.81R
PITTSBURGH INT CLOUDY    67  54  63 W7G17     29.79R
PITTSBURGH     CLOUDY    68  50  52 SW14      29.78S
INDIANA*       MOSUNNY   66  55  68 SW12G22   29.81R
LATROBE        PTSUNNY   66  54  63 SW12G21   29.80S
WASHINGTON CO* CLOUDY    66  52  59 SW10G17   29.82R
$$

PAZ004>006-010>012-017>019-024>028-033>037-041-042-045-046-049>053-232100-
CENTRAL PENNSYLVANIA

CITY           SKY/WX    TMP DP  RH WIND       PRES   REMARKS
BRADFORD       CLOUDY    59  53  80 SW8       29.78R
DUBOIS         CLOUDY    60  52  74 W13       29.79R
CLEARFIELD       N/A    N/A N/A N/A MISG      29.78R
JOHNSTOWN      CLOUDY    64  52  64 SW14G21   29.80S
ALTOONA        PTSUNNY   70  52  52 W15       29.79S
STATE COLLEGE  MOSUNNY   72  52  49 SW14      29.76F
WILLIAMSPORT   SUNNY     66  46  48 CALM      29.75F
SELINSGROVE    MOSUNNY   71  54  54 S10       29.76F
FT INDIANTOWN  SUNNY     68  55  62 CALM      29.79F
CAPITAL CITY   PTSUNNY   76  50  40 SW9G18    29.77F
HARRISBURG     MOSUNNY   73  52  47 SW10G22   29.76F
YORK           MOSUNNY   74  53  48 SW10      29.78F
$$

PAZ038>040-043-044-047-048-054-055-060>062-067>071-232100-
EASTERN PENNSYLVANIA

CITY           SKY/WX    TMP DP  RH WIND       PRES   REMARKS
SCRANTON       PTSUNNY   70  52  52 SW12G23   29.75F
MOUNT POCONO   PTSUNNY   62  50  64 SW12G21   29.79S
ALLENTOWN      SUNNY     69  51  52 W3        29.79F
QUAKERTOWN*    PTCLDY    68  54  60 SW5       29.81F
READING        SUNNY     73  55  53 SW14G20   29.78F
LANCASTER      SUNNY     72  56  57 SE7       29.79F
COATESVILLE    CLEAR     72  52  49 S9        29.82F
POTTSTOWN      PTSUNNY   71  52  50 VRB6      29.81F
BLUE BELL      MOSUNNY   68  54  60 S8        29.80S
DOYLESTOWN     SUNNY     70  53  54 SW7       29.80F
WILLOW GROVE   NOT AVBL
NORTH PHILA    SUNNY     71  54  54 SW10      29.83S
PHILADELPHIA   PTSUNNY   72  53  51 SW14      29.82S
$$




USA.gov is the U.S. government's official web portal to all federal, state and local government web resources and services.